Location: St. Louis
(38.6270°N, 90.1994°W)
Time: 02:13:48
(UTC-06:00)

Transit 2A - Pass Details

Date: 01 December 2021
Orbit: 591 x 966 km, 66.7° (Epoch: 24 January)

Event Time Altitude Azimuth Distance (km) Brightness Sun altitude
Rises 11:31:53 0° 309° (NW) 3,649 9.1 29.3°
Reaches altitude 10° 11:36:27 10° 280° (W) 2,660 8.8 29.4°
Maximum altitude 11:38:28 12° 260° (W) 2,512 8.8 29.4°
Drops below altitude 10° 11:40:27 10° 241° (WSW) 2,603 9.2 29.4°
Sets 11:44:48 0° 211° (SSW) 3,458 10.2 29.4°
